Regional Weather Roundup
Issued by NWS

Home | Current Version | Previous Version | Graphics & Text | Print | Product List | Glossary Off
Versions: 1 2 3 4 5 6 7 8 9 10 11 12 13 14 15 16 17 18 19 20 21 22 23 24 25 26 27 28 29 30 31 32 33 34 35 36 37 38 39 40 41 42 43 44 45 46 47 48 49 50

000
ASUS43 KDMX 050103
RWRIA

WEATHER ROUNDUP FOR IOWA
NATIONAL WEATHER SERVICE DES MOINES IA
800 PM CDT WED MAY 04 2016

NOTE: "FAIR" INDICATES FEW OR NO CLOUDS BELOW 12,000 FEET WITH NO
SIGNIFICANT WEATHER AND/OR OBSTRUCTIONS TO VISIBILITY.

* - THESE STATIONS ARE NOT NWS STATIONS...THUS NOT UNDER NWS
QUALITY CONTROL.  THEY ALSO DO NOT REPORT WEATHER SUCH
AS PRECIPITATION OR FOG.

IAZ001>003-012>014-020>022-031>034-043>046-050200-
   NORTHWEST IOWA

CITY           SKY/WX    TMP DP  RH WIND       PRES   REMARKS
CARROLL *      CLEAR     64  37  36 N12       29.96S
CHEROKEE *     CLEAR     62  36  38 N6        29.97S
DENISON *      CLEAR     64  37  36 NW9       29.96S
LE MARS *      CLEAR     66  37  34 NW7       29.99S
ORANGE CITY *  CLEAR     64  37  36 NW6       29.99S
SHELDON *      CLEAR     64  34  32 N10       29.97S
SIOUX CITY     CLEAR     63  40  42 NW9       29.99F
SPENCER        CLEAR     62  34  35 N10       29.97S
STORM LAKE *   CLEAR     63  36  36 N9        29.98S
$$

IAZ055>058-069>071-079>083-090>094-050200-
   SOUTHWEST IOWA

CITY           SKY/WX    TMP DP  RH WIND       PRES   REMARKS
ATLANTIC *     CLEAR     63  37  39 N9        29.97F
AUDUBON *      CLEAR     63  34  34 NW9       29.98S
CLARINDA *       N/A     64  36  34 MISG      29.99S
COUNCIL BLFS * CLEAR     64  39  39 NW8G16    30.00S
CRESTON *      CLEAR     61  37  41 N10       29.98S
HARLAN  *      CLEAR     63  36  36 NW9       30.01S
LAMONI         CLEAR     59  39  47 NW8       29.96S
RED OAK *      CLEAR     64  36  34 N7        29.98F
SHENANDOAH *   CLEAR     64  37  36 NW6       29.99F
$$

IAZ047>049-059>061-072>074-084-050200-
   CENTRAL IOWA

CITY           SKY/WX    TMP DP  RH WIND       PRES   REMARKS
AMES           CLEAR     64  33  31 NW15      29.93S
ANKENY *       CLEAR     64  34  32 NW14      29.93S
BOONE *        CLEAR     63  34  34 NW9G18    29.93S
CHARITON *     CLEAR     61  34  36 NW10      29.93F
DES MOINES     CLEAR     65  30  27 N12       29.93F
GRINNELL*      CLEAR     61  32  33 N10       29.91S
KNOXVILLE *    CLEAR     61  34  36 NW9       29.91S
MARSHALLTOWN   CLEAR     61  33  35 N12       29.91R
NEWTON *       CLEAR     63  32  31 N12       29.91S
PERRY *          N/A     64  34  32 NW12      29.95F
$$

IAZ004>006-015-016-023>025-035-036-050200-
   NORTH CENTRAL IOWA

CITY           SKY/WX    TMP DP  RH WIND       PRES   REMARKS
ALGONA *       CLEAR     64  32  29 N12       29.95R
CLARION *      CLEAR     64  28  25 N15G21    29.93S
ESTHERVILLE    CLEAR     62  34  35 N13       29.95S
FORT DODGE *   CLEAR     63  36  36 NW9       29.95S
MASON CITY     CLEAR     60  30  32 N13       29.94R
FOREST CITY *    N/A     59  28  31 N10G16    29.93S
WEBSTER CITY * CLEAR     64  32  29 NW14      29.92R
IOWA FALLS *     N/A     63  30  29 N13G18    29.93R
$$

IAZ007>011-017>019-026>030-037>042-050>054-066-050200-
   NORTHEAST IOWA

CITY           SKY/WX    TMP DP  RH WIND       PRES   REMARKS
CEDAR RAPIDS   CLEAR     59  34  39 N12       29.88R
CHARLES CITY * CLEAR     61  28  29 N13G18    29.92R
CLINTON *      CLEAR     54  37  52 N10       29.87R
DECORAH *      CLEAR     59  28  31 N10       29.90R
DUBUQUE        CLEAR     54  33  45 N9        29.87R
MONTICELLO *   CLEAR     59  34  38 N9        29.88S
OELWEIN *      CLEAR     59  30  33 N13G18    29.91R
WATERLOO       CLEAR     60  28  29 N14       29.90R
$$

IAZ064-065-067-068-078-050200-
   EAST CENTRAL IOWA

CITY           SKY/WX    TMP DP  RH WIND       PRES   REMARKS
DAVENPORT      CLEAR     56  34  43 N10       29.87R
IOWA CITY      CLEAR     61  31  32 N13       29.89S
MT. PLEASANT * PTCLDY    63  36  36 N10       29.89R
MUSCATINE *    CLEAR     61  30  31 N12G18    29.88R
QUAD CITIES    CLEAR     60  32  34 N7        29.86R
$$

IAZ062-063-075>077-085>089-095>099-050200-
   SOUTHEAST IOWA

CITY           SKY/WX    TMP DP  RH WIND       PRES   REMARKS
BURLINGTON     PTCLDY    59  34  39 N9        29.87S
FAIRFIELD *    CLEAR     59  32  36 N12       29.89S
FORT MADISON * PTCLDY    57  36  44 NW8       29.89R
KEOKUK *       CLEAR     61  32  33 NW8       29.88R
OSKALOOSA *      N/A     61  31  32 N10       29.91R
OTTUMWA        CLEAR     58  36  43 N12       29.90S
WASHINGTON *   CLEAR     61  34  36 N14G21    29.90R
$$

ABBREVIATIONS USED IN REMARKS
   TC - TEMPERATURES IN CELSIUS
  WCI - WIND CHILL INDEX
   HX - HEAT INDEX
  VSB - VISIBILITY
$$





USA.gov is the U.S. government's official web portal to all federal, state and local government web resources and services.